Overview Statistics Trail Chart Weather Telemetry Raw packets
 

This is the latest recevied weather packets stored in our database for station/object N8BAP. If no packets are shown the sender has not sent any weather packets the latest 10 day(s).

<< 24 25 26 27 28 29 30 >>
Time Temp. Humidity Pressure Rain* Wind** Luminosity Snow
1788456163 33.33° C 58% 1022.6 hPa 0 mm - 621 W/m² -
1788455858 33.33° C 57% 1022.6 hPa 0 mm - 611 W/m² -
1788455554 33.33° C 54% 1022.6 hPa 0 mm - 613 W/m² -
1788455252 32.78° C 57% 1022.6 hPa 0 mm - 588 W/m² -
1788454948 33.33° C 56% 1022.7 hPa 0 mm - 605 W/m² -
1788454646 32.78° C 58% 1022.6 hPa 0 mm - 587 W/m² -
1788454341 32.78° C 57% 1022.7 hPa 0 mm - 566 W/m² -
1788454035 32.78° C 57% 1022.7 hPa 0 mm - 567 W/m² -
1788453732 32.78° C 59% 1022.9 hPa 0 mm - 596 W/m² -
1788453431 32.78° C 61% 1023 hPa 0 mm - 613 W/m² -
1788453128 32.78° C 58% 1023.2 hPa 0 mm - 610 W/m² -
1788452823 32.78° C 60% 1022.9 hPa 0 mm - 604 W/m² -
1788452519 32.78° C 59% 1022.9 hPa 0 mm - 573 W/m² -
1788452214 32.78° C 58% 1023 hPa 0 mm - 622 W/m² -
1788451903 32.22° C 60% 1023.1 hPa 0 mm - 615 W/m² -
1788451599 32.78° C 61% 1023 hPa 0 mm - 654 W/m² -
1788451293 32.22° C 60% 1023.1 hPa 0 mm - 655 W/m² -
1788450992 32.22° C 62% 1023 hPa 0 mm - 660 W/m² -
1788450687 32.22° C 63% 1022.7 hPa 0 mm - 640 W/m² -
1788450383 32.22° C 64% 1023.2 hPa 0 mm - 641 W/m² -
1788450080 32.22° C 59% 1023 hPa 0 mm - 648 W/m² -
1788449775 32.22° C 63% 1023 hPa 0 mm - 617 W/m² -
1788449470 32.22° C 62% 1023 hPa 0 mm - 577 W/m² -
1788449166 32.22° C 65% 1023.2 hPa 0 mm - 590 W/m² -
1788448863 31.67° C 63% 1023.2 hPa 0 mm - 637 W/m² -

* Rain latest hour (hover to see other rain measurements)
** Current wind speed in m/s (hover to see current wind gust speed)